sat.trackr.live / text

‹ back to catalog

GAOFEN-3 02

NORAD 49495 · 2021-109A

PAYLOAD ACTIVE UNKNOWN

§ Identity

Operator
Country
PRC
Launch date
2021-11-22
Launch site
JSC
Launch vehicle
Mass (kg)
RCS (m²)

External: N2YO · Heavens-Above · Gunter

§ Orbital elements

Epoch: 2026-09-20T23:58:08.505984Z

Period
99.85 min
Inclination
98.4136°
Eccentricity
0.0003892
Mean motion
14.42217154 rev/d
Perigee alt
748.4 km
Apogee alt
754.0 km
Semi-major
7,129.3 km
B*
-5.8999e-6
RAAN
270.7496°
Arg perigee
68.1334°
Mean anomaly
292.0270°
Rev number
25,412

§ Raw data

GAOFEN-3 021 49495U 21109A   26263.99870956 -.00000063  00000+0 -58999-5 0  99912 49495  98.4136 270.7496 0003892  68.1334 292.0270 14.42217154254123

JSON: /api/v1/satellites/49495 · /tle

For live sub-satellite position, see the globe view (requires WebGL).

§ Visibility from observer

Set your observer location to see the next 7 days of passes ≥ 10°. The values pass through the URL so the page stays shareable.

No JS? Fill the form by hand. The geolocation button needs JavaScript.

§ Radio — SatNOGS DB

ModeDescriptionDownlinkUplink
FM S-band telemetry 2.212 GHz

1 transmitter · refreshed weekly from db.satnogs.org